Location: Allie Creek
(37.5926°N, 89.8526°W)
Time: 13:14:31
(UTC+00:00)

PAYLOAD B - Pass Details

Date: 26 September 2023
Orbit: 849 x 870 km, 99.1° (Epoch: 28 November)

Event Time Altitude Azimuth Distance (km) Brightness Sun altitude
Rises 01:07:37 0° 165° (SSE) 3,439 7.1 -15.8°
Reaches altitude 10° 01:09:59 10° 165° (SSE) 2,504 6.4 -16.2°
Maximum altitude 01:15:34 89° 254° (WSW) 871 4.2 -17.3°
Drops below altitude 10° 01:21:09 10° 346° (NNW) 2,507 7.0 -18.4°
Sets 01:23:32 0° 347° (NNW) 3,445 7.7 -18.8°
